Weather History for Hallock, MN

Change the Weather History Date:

Saturday, January 19, 2013

  Actual Average Record
Temperature  
Mean Temperature 3 °F -  
Max Temperature 15 °F 11 °F 43 °F (1942)
Min Temperature -11 °F -7 °F -34 °F (1948)
Degree Days  
Heating Degree Days 62    
Moisture  
Dew Point 0 °F    
Average Humidity 83    
Maximum Humidity 93    
Minimum Humidity 71    
Precipitation  
Precipitation 0.02 in - - ()
Sea Level Pressure  
Sea Level Pressure 29.97 in    
Wind  
Wind Speed 0 mph (North)    
Max Wind Speed 0 mph    
Max Gust Speed -    
Visibility 5 miles    
Events Fog , Snow    
Averages and records for this station are not official NWS values.
T = Trace of Precipitation, MM = Missing Value Source: NWS Daily Summary

Daily Weather History Graph

Daily Weather History Graph

Search for Another Location

Airport:

Trip Planner

Search our weather history database for the weather conditions in past years. The results will help you decide how hot, cold, wet, or windy it might be!

Date:

Astronomy

Jan. 19, 2013 Rise Set
Actual Time 8:12 AM CST 5:05 PM CST
Civil Twilight 7:36 AM CST 5:40 PM CST
Nautical Twilight 6:57 AM CST 6:19 PM CST
Astronomical Twilight 6:20 AM CST 6:57 PM CST
Moon 11:38 AM CST (1/19) 1:40 AM CST (1/19)
Length of Visible Light 10h 04m
Length of Day
8h 53m
First Quarter, 57% of the Moon is Illuminated
Jan 19
First Quarter
Jan 26
Full
Feb 3
Last Quarter
Feb 10
New
Feb 17
First Quarter

Hourly Weather History & Observations

Time (CST) Temp. Dew Point Humidity Pressure Visibility Wind Dir Wind Speed Gust Speed Precip Events Conditions
12:14 AM 14.0 °F 10.4 °F 86% 29.68 in 2.5 mi Calm Calm - 0.01 in Snow Light Snow
12:34 AM 14.0 °F 12.2 °F 93% 29.67 in 5.0 mi Calm Calm - 0.01 in Snow Light Snow
12:54 AM 14.0 °F 12.2 °F 93% 29.66 in 3.0 mi Calm Calm - 0.01 in Snow Light Snow
1:14 AM 14.0 °F 12.2 °F 93% 29.65 in 2.0 mi Calm Calm - N/A Snow Light Snow
1:34 AM 14.0 °F 12.2 °F 93% 29.64 in 2.5 mi Calm Calm - 0.01 in Snow Light Snow
1:54 AM 15.8 °F 12.2 °F 86% 29.64 in 4.0 mi Calm Calm - 0.01 in Snow Light Snow
2:14 AM 15.8 °F 12.2 °F 86% 29.62 in 10.0 mi Calm Calm - N/A   Overcast
2:34 AM 15.8 °F 12.2 °F 86% 29.63 in 10.0 mi Calm Calm - N/A   Overcast
2:54 AM 15.8 °F 12.2 °F 86% 29.64 in 10.0 mi Calm Calm - N/A   Overcast
3:14 AM 15.8 °F 14.0 °F 93% 29.63 in 10.0 mi Calm Calm - N/A   Overcast
3:34 AM 15.8 °F 12.2 °F 86% 29.64 in 10.0 mi Calm Calm - N/A   Overcast
3:54 AM 15.8 °F 12.2 °F 86% 29.63 in 10.0 mi Calm Calm - N/A   Overcast
4:14 AM 15.8 °F 12.2 °F 86% 29.63 in 10.0 mi Calm Calm - N/A   Overcast
4:34 AM 15.8 °F 12.2 °F 86% 29.62 in 10.0 mi Calm Calm - N/A   Overcast
4:54 AM 15.8 °F 12.2 °F 86% 29.63 in 10.0 mi Calm Calm - N/A   Overcast
5:14 AM 15.8 °F 12.2 °F 86% 29.64 in 10.0 mi Calm Calm - N/A   Overcast
5:34 AM 15.8 °F 12.2 °F 86% 29.66 in 10.0 mi Calm Calm - N/A   Overcast
5:54 AM 14.0 °F 12.2 °F 93% 29.68 in 10.0 mi Calm Calm - N/A   Overcast
6:13 AM 12.2 °F 10.4 °F 92% 29.68 in 10.0 mi Calm Calm - N/A   Overcast
6:34 AM 12.2 °F 10.4 °F 92% 29.70 in 5.0 mi Calm Calm - N/A Snow Light Snow
6:54 AM 12.2 °F 10.4 °F 92% 29.71 in 4.0 mi Calm Calm - N/A Snow Light Snow
7:13 AM 12.2 °F 8.6 °F 85% 29.74 in 1.8 mi Calm Calm - N/A Snow Light Snow
7:34 AM 10.4 °F 6.8 °F 85% 29.74 in 1.5 mi Calm Calm - N/A Snow Light Snow
7:54 AM 8.6 °F 6.8 °F 92% 29.77 in 2.0 mi Calm Calm - N/A Snow Light Snow
8:14 AM 8.6 °F 5.0 °F 85% 29.79 in 0.8 mi Calm Calm - N/A Snow Light Snow
8:34 AM 6.8 °F 3.2 °F 85% 29.80 in 0.8 mi Calm Calm - N/A Snow Light Snow
8:54 AM 5.0 °F 1.4 °F 85% 29.82 in 0.5 mi Calm Calm - N/A Snow Light Snow
9:14 AM 5.0 °F 1.4 °F 85% 29.84 in 0.8 mi Calm Calm - N/A Snow Light Snow
9:34 AM 3.2 °F -0.4 °F 85% 29.85 in 0.5 mi Calm Calm - N/A Snow Light Snow
9:54 AM 3.2 °F -0.4 °F 85% 29.88 in 0.5 mi Calm Calm - N/A Snow Light Snow
10:14 AM 3.2 °F -0.4 °F 85% 29.89 in 0.5 mi Calm Calm - N/A Snow Light Snow
10:34 AM 3.2 °F -0.4 °F 85% 29.91 in 0.2 mi Calm Calm - N/A Snow Snow
10:54 AM 3.2 °F -0.4 °F 85% 29.91 in 0.2 mi Calm Calm - N/A Snow Light Snow
11:14 AM 3.2 °F -0.4 °F 85% 29.93 in 0.2 mi Calm Calm - N/A Snow Light Snow
11:34 AM 3.2 °F -0.4 °F 85% 29.94 in 0.2 mi Calm Calm - N/A Snow Light Snow
11:54 AM 3.2 °F -0.4 °F 85% 29.95 in 0.2 mi Calm Calm - N/A Snow Light Snow
12:14 PM 3.2 °F -0.4 °F 85% 29.95 in 0.2 mi Calm Calm - N/A Snow Light Snow
12:34 PM 3.2 °F -2.2 °F 78% 29.96 in 0.5 mi Calm Calm - N/A Snow Light Snow
12:54 PM 3.2 °F -2.2 °F 78% 29.97 in 0.2 mi Calm Calm - N/A Snow Light Snow
1:14 PM 3.2 °F -2.2 °F 78% 29.99 in 0.5 mi Calm Calm - N/A Snow Light Snow
1:34 PM 3.2 °F -2.2 °F 78% 30.00 in 0.2 mi Calm Calm - N/A Snow Light Snow
1:54 PM 1.4 °F -2.2 °F 85% 30.02 in 0.2 mi Calm Calm - N/A Snow Light Snow
2:14 PM 1.4 °F -2.2 °F 85% 30.05 in 0.5 mi Calm Calm - N/A Snow Light Snow
2:34 PM 1.4 °F -2.2 °F 85% 30.06 in 0.2 mi Calm Calm - N/A Snow Light Snow
2:54 PM 1.4 °F -2.2 °F 85% 30.08 in 0.2 mi Calm Calm - N/A Snow Light Snow
3:14 PM 1.4 °F -2.2 °F 85% 30.11 in 0.5 mi Calm Calm - N/A Snow Light Snow
3:34 PM -0.4 °F -4.0 °F 85% 30.13 in 0.2 mi Calm Calm - N/A Snow Light Snow
3:54 PM -0.4 °F -5.8 °F 78% 30.17 in 0.8 mi Calm Calm - N/A   Haze
4:14 PM -2.2 °F -5.8 °F 85% 30.18 in 0.5 mi Calm Calm - N/A Fog Light Freezing Fog
4:34 PM -2.2 °F -7.6 °F 78% 30.20 in 0.5 mi Calm Calm - N/A Snow Light Snow
4:54 PM -2.2 °F -7.6 °F 78% 30.22 in 0.5 mi Calm Calm - N/A   Haze
5:14 PM -4.0 °F -7.6 °F 85% 30.23 in 0.5 mi Calm Calm - N/A Fog Light Freezing Fog
5:34 PM -4.0 °F -9.4 °F 78% 30.25 in 1.2 mi Calm Calm - N/A   Haze
5:54 PM -4.0 °F -9.4 °F 78% 30.26 in 2.0 mi Calm Calm - N/A   Haze
6:14 PM -4.0 °F -9.4 °F 78% 30.26 in 1.5 mi Calm Calm - N/A   Haze
6:34 PM -5.8 °F -9.4 °F 84% 30.28 in 3.0 mi Calm Calm - N/A   Mostly Cloudy
6:54 PM -5.8 °F -9.4 °F 84% 30.29 in 4.0 mi Calm Calm - N/A   Haze
7:14 PM -5.8 °F -9.4 °F 84% 30.29 in 5.0 mi Calm Calm - N/A   Haze
7:34 PM -5.8 °F -11.2 °F 77% 30.30 in 10.0 mi Calm Calm - N/A   Clear
7:54 PM -5.8 °F -11.2 °F 77% 30.31 in 10.0 mi Calm Calm - N/A   Clear
8:14 PM -7.6 °F -11.2 °F 84% 30.31 in 10.0 mi Calm Calm - N/A   Clear
8:33 PM -7.6 °F -13.0 °F 77% 30.31 in 10.0 mi Calm Calm - N/A   Clear
8:54 PM -7.6 °F -13.0 °F 77% 30.31 in 10.0 mi Calm Calm - N/A   Clear
9:14 PM -7.6 °F -13.0 °F 77% 30.31 in 10.0 mi Calm Calm - N/A   Clear
9:34 PM -7.6 °F -14.8 °F 71% 30.32 in 10.0 mi Calm Calm - N/A   Clear
9:54 PM -7.6 °F -14.8 °F 71% 30.32 in 10.0 mi Calm Calm - N/A   Clear
10:14 PM -7.6 °F -14.8 °F 71% 30.31 in 10.0 mi Calm Calm - N/A   Clear
10:34 PM -9.4 °F -14.8 °F 77% 30.32 in 10.0 mi Calm Calm - N/A   Clear
10:54 PM -9.4 °F -14.8 °F 77% 30.32 in 10.0 mi Calm Calm - N/A   Clear
11:14 PM -9.4 °F -14.8 °F 77% 30.32 in 10.0 mi Calm Calm - N/A   Clear
11:34 PM -9.4 °F -14.8 °F 77% 30.31 in 10.0 mi Calm Calm - N/A   Clear
11:54 PM -11.2 °F -16.6 °F 77% 30.31 in 10.0 mi Calm Calm - N/A   Clear